sat.trackr.live / text

‹ back to catalog

STARLINK-3043

NORAD 49179 · 2021-082BB

PAYLOAD ACTIVE UNKNOWN

§ Identity

Operator
Country
US
Launch date
2021-09-14
Launch site
AFWTR
Launch vehicle
Mass (kg)
RCS (m²)

Purposes: comms

External: N2YO · Heavens-Above · Gunter

§ Orbital elements

Epoch: 2026-09-18T23:36:23.962752Z

Period
96.11 min
Inclination
69.9987°
Eccentricity
0.0002401
Mean motion
14.98330352 rev/d
Perigee alt
570.4 km
Apogee alt
573.7 km
Semi-major
6,950.2 km
B*
3.4812e-5
RAAN
127.0845°
Arg perigee
258.1473°
Mean anomaly
101.9417°
Rev number
27,591

§ Raw data

STARLINK-30431 49179U 21082BB  26261.98361068  .00000322  00000+0  34812-4 0  99992 49179  69.9987 127.0845 0002401 258.1473 101.9417 14.98330352275919

JSON: /api/v1/satellites/49179 · /tle

For live sub-satellite position, see the globe view (requires WebGL).

§ Visibility from observer

Set your observer location to see the next 7 days of passes ≥ 10°. The values pass through the URL so the page stays shareable.

No JS? Fill the form by hand. The geolocation button needs JavaScript.